Location: Dillon
(41.1766°N, 107.0923°W)
Time: 11:39:22
(UTC+00:00)

AO-92 - Pass Details

Date: 06 July 2022
Orbit: 469 x 481 km, 97.4° (Epoch: 09 August)

Event Time Altitude Azimuth Distance (km) Brightness Sun altitude
Exits shadow 04:53:49 43° 101° (E) 688 ? -18.4°
Maximum altitude 04:54:18 46° 74° (ENE) 653 ? -18.5°
Drops below altitude 10° 04:57:45 10° 0° (N) 1,669 ? -18.8°
Sets 04:59:53 0° 355° (N) 2,556 ? -19.0°
